Hourly Data Report for September 07, 2017

All times are specified in Local Standard Time (LST). Add 1 hour to adjust for Daylight Saving Time where and when it is observed.

EAST POINT (AUT)
PRINCE EDWARD ISLAND

46°27'36.000" N
61°59'18.000" W
7.70 m
8300418
71412
WEP

Download Data

Hourly Data (September 2017)
Hourly Data Report for September 7, 2017
Temp Definition
°C
Dew Point Temp Definition
°C
Rel Hum Definition
%
Wind Dir Definition
10's deg

Wind Spd Definition
km/h
Visibility Definition
km
Stn Press Definition
kPa
Hmdx Definition


Wind Chill Definition


Weather Definition


TIME
00:00 18.4 17.1 92 17 22   101.78     LegendNANA
01:00 18.4 17.2 93 16 27   101.77     LegendNANA
02:00 18.2 17.1 93 17 21   101.70     LegendNANA
03:00 18.1 17.0 93 16 27   101.64     LegendNANA
04:00 18.2 17.1 93 17 25   101.63     LegendNANA
05:00 18.1 17.0 93 16 24   101.58     LegendNANA
06:00 18.3 17.2 93 16 25   101.55     LegendNANA
07:00 18.7 17.4 92 14 29   101.45     LegendNANA
08:00 18.8 17.6 93 15 29   101.38     LegendNANA
09:00 18.7 17.7 94 15 31   101.33     LegendNANA
10:00 19.7 18.4 92 15 32   101.28     LegendNANA
11:00 19.4 18.6 95 16 29   101.22     LegendNANA
12:00 19.9 18.8 94 16 31   101.11     LegendNANA
13:00 20.7 19.5 93 19 33   101.12 28   LegendNANA
14:00 20.1 19.0 94 18 23   101.06 27   LegendNANA
15:00 20.7 19.4 92 17 22   100.95 28   LegendNANA
16:00 20.4 19.2 93 18 29   100.93 27   LegendNANA
17:00 20.3 18.9 92 18 28   100.87 27   LegendNANA
18:00 19.9 18.4 91 18 25   100.84     LegendNANA
19:00 20.2 18.4 90 18 35   100.82 27   LegendNANA
20:00 19.9 18.2 90 18 27   100.90     LegendNANA
21:00 19.3 17.9 92 19 24   100.91     LegendNANA
22:00 18.9 17.5 92 19 24   100.94     LegendNANA
23:00 18.4 17.1 92 19 23   100.93     LegendNANA

Notes on Data Quality.

Legend

  • E = Estimated
  • M = Missing
  • NA = Not Available
  • ‡ = Partner data that is not subject to review by the National Climate Archives
Date modified: